Location: Caltech
(34.1382°N, 118.1253°W)
Time: 05:21:02
(UTC-07:00)

Cosmos 1937 Rocket - Visible Passes

Search period start: 28 July 2014 00:00
Search period end: 07 August 2014 00:00
Orbit: 748 x 782 km, 74.0° (Epoch: 27 July)

Date Brightness Start Highest point End Pass type
(mag) Time Alt. Az. Time Alt. Az. Time Alt. Az.
28 Jul 4.3 21:22:28 10° NNW 21:27:23 48° WSW 21:31:58 12° S visible
29 Jul 3.5 20:44:21 10° NNW 20:49:30 89° ENE 20:54:37 10° SSE visible
30 Jul 6.0 21:50:05 10° WNW 21:53:00 15° W 21:55:54 10° SW visible
31 Jul 5.3 21:10:55 10° NW 21:15:17 29° W 21:19:38 10° SSW visible
01 Aug 4.2 20:32:29 10° NNW 20:37:29 55° WSW 20:42:27 10° S visible
03 Aug 6.1 20:59:50 10° NW 21:03:07 17° W 21:06:25 10° SW visible
04 Aug 5.3 20:20:52 10° NW 20:25:24 32° W 20:29:55 10° SSW visible
